Location: Pasarilla del Rebollar
(40.6790°N, 5.0062°W)
Time: 08:36:27
(UTC+00:00)

ATLAS 3B R/B - Pass Details

Date: 22 April 2026
Orbit: 937 x 1257 km, 63.8° (Epoch: 15 May)

Event Time Altitude Azimuth Distance (km) Brightness Sun altitude
Rises 01:20:44 0° 324° (NW) 4,193 6.2 -35.2°
Reaches altitude 10° 01:23:35 10° 323° (NW) 3,202 5.5 -35.1°
Enters shadow 01:29:23 53° 309° (NW) 1,437 3.3 -34.7°
